AirNav   Everest Fuels
 
 758 users online  

25M Ripley Airport
Ripley, Mississippi, USA

GOING TO RIPLEY?


FAA INFORMATION EFFECTIVE 09 SEPTEMBER 2021

Location

FAA Identifier: 25M
Lat/Long: 34-43-21.8000N 089-00-52.9000W
34-43.363333N 089-00.881667W
34.7227222,-89.0146944
(estimated)
Elevation: 466.9 ft. / 142.3 m (surveyed)
Variation: 01W (2005)
From city: 3 miles W of RIPLEY, MS
Time zone: UTC -5 (UTC -6 during Standard Time)
Zip code: 38663

Airport Operations

Airport use: Open to the public
Activation date: 04/1971
Control tower: no
ARTCC: MEMPHIS CENTER
FSS: GREENWOOD FLIGHT SERVICE STATION
NOTAMs facility: GWO (NOTAM-D service available)
Attendance: UNATNDD
Wind indicator: lighted
Segmented circle: yes
Lights: DUSK-2200. AFTER 2200 ACTVT PAPI RWY 03 & 21; MIRL RWY 03/21 - CTAF.
Beacon: white-green (lighted land airport)
Operates sunset to sunrise.

Airport Communications

CTAF/UNICOM: 122.8
  • APCH/DEP SVC PRVDD BY MEMPHIS ARTCC ON FREQS 135.9/260.6 (TUPELO RCAG).

Nearby radio navigation aids

VOR radial/distance  VOR name  Freq  Var
HLIr094/23.9HOLLY SPRINGS VORTAC112.4003E
OTBr336/31.8TUPELO VOR/DME109.8004E

Airport Services

Fuel available: 100LL JET-A
100LL:SELF SVC CREDIT CARD FUEL AVBL 24 HRS.
Parking: tiedowns
Airframe service: NONE
Powerplant service: NONE
Bottled oxygen: NONE
Bulk oxygen: NONE

Runway Information

Runway 3/21

Dimensions: 4400 x 75 ft. / 1341 x 23 m
Surface: asphalt, in good condition
Weight bearing capacity: 
Single wheel: 20.0
Runway edge lights: medium intensity
RUNWAY 3  RUNWAY 21
Latitude: 34-43.055667N34-43.672667N
Longitude: 089-01.112667W089-00.650500W
Elevation: 433.0 ft.466.8 ft.
Traffic pattern: leftleft
Runway heading: 033 magnetic, 032 true213 magnetic, 212 true
Markings: nonprecision, in fair conditionnonprecision, in fair condition
Visual slope indicator: 2-light PAPI on left (3.25 degrees glide path)2-light PAPI on left (3.50 degrees glide path)
Touchdown point: yes, no lightsyes, no lights
Obstructions: 65 ft. tree, 1500 ft. from runway, 300 ft. right of centerline, 20:1 slope to clear65 ft. trees, 1505 ft. from runway, 253 ft. right of centerline, 20:1 slope to clear

Airport Ownership and Management from official FAA records

Ownership: Publicly-owned
Owner: CITY OF RIPLEY & TIPPAH COUNTY
407 JACKSON ST
RIPLEY, MS 38663
Phone 662-837-7374
JOHNNY COOMBS, CHAIRMAN CO ARPT BOARD.
Manager: JOHNNY COOMBS
PO BOX 127
BLUE MOUNTAIN, MS 38610
Phone 662-587-9500

Airport Operational Statistics

Aircraft based on the field: 9
Single engine airplanes: 9
    
Aircraft operations: avg 30/day *
61% transient general aviation
39% local general aviation
* for 12-month period ending 01 December 2020

Additional Remarks

WILDLIFE ON AND IN VCNTY OF ARPT.
FOR CD CTC MEMPHIS ARTCC AT 901-368-8453/8449.

Instrument Procedures

NOTE: All procedures below are presented as PDF files. If you need a reader for these files, you should download the free Adobe Reader.

NOT FOR NAVIGATION. Please procure official charts for flight.
FAA instrument procedures published for use from 09 September 2021 at 0901Z to 07 October 2021 at 0900Z.

 
IAPs - Instrument Approach Procedures
RNAV (GPS) RWY 03   download (210KB)
RNAV (GPS) RWY 21   download (207KB)
VOR/DME-A **CHANGED**   download (187KB)
NOTE: Special Take-Off Minimums/Departure Procedures apply   download (116KB)

Other nearby airports with instrument procedures:

M72 - New Albany-Union County Airport (10 nm S)
8M1 - Booneville/Baldwyn Airport (20 nm SE)
KCRX - Roscoe Turner Airport (23 nm NE)
M41 - Holly Springs-Marshall County Airport (25 nm W)
M08 - William L Whitehurst Field Airport (30 nm N)
 
Loc | Ops | Rwys | IFR | FBO | Links
Com | Nav | Svcs | Stats | Notes
Area around 25M (Ripley Airport)
 
Road maps at: MapQuest Bing Google
 
Aerial photo
WARNING: Photo may not be current or correct
Aerial photo of 25M (Ripley Airport)
Photo by CS
Photo taken 01-Jun-2017
looking north.

Do you have a better or more recent aerial photo of Ripley Airport that you would like to share? If so, please send us your photo.

 
Sectional chart

 
Airport distance calculator
Flying to Ripley Airport? Find the distance to fly.

From to 25M

Sunrise and sunset
Times for 24-Sep-2021
 Local
(UTC-5)
 Zulu
(UTC)
Morning civil twilight06:2111:21
Sunrise06:4711:47
Sunset18:5023:50
Evening civil twilight19:1500:15

Current date and time
Zulu (UTC)  25-Sep-2021 03:30:11
Local (UTC-5)  24-Sep-2021 22:30:11
 
METAR
KCRX 
23nm NE 
250315Z AUTO 00000KT 7SM CLR 14/13 A3009 RMK AO2
KTUP 
30nm SE 
250253Z AUTO 00000KT 10SM CLR 17/14 A3008 RMK AO2 SLP184 T01670144 51005 $
KUOX 
33nm SW 
250315Z AUTO 00000KT 10SM CLR 14/13 A3010 RMK AO2 PWINO
KFYE 
35nm NW 
250315Z AUTO 00000KT 10SM CLR 17/15 A3007 RMK A01
KOLV 
41nm NW 
250050Z 00000KT 10SM CLR 19/13 A3006
TAF
KTUP 
30nm SE 
241721Z 2418/2518 07004KT P6SM SKC FM250400 00000KT P6SM BKN250 FM251500 26004KT P6SM SKC
NOTAMs
Click for the latest NOTAMs
NOTAMs are issued by the DoD/FAA and will open in a separate window not controlled by AirNav.

 

 
 

FBO, Fuel Providers, and Aircraft Ground Support

  
 Business Name 
 
 Contact 
 
 Services / Description 
 
Fuel Prices
 
Comments
  
Ripley Airport 662-587-9500
no information available

If you are affiliated with Ripley Airport and would like to show here your services, contact info, web link, logo, and more, click here
100LL Jet A
SS $3.75 $2.75 
 Updated 17-Sep-2021
 
   4 read write
SS=Self service
Update Fuel Prices
 

Would you like to see your business listed on this page?

 If your business provides an interesting product or service to pilots, flight crews, aircraft, or users of the Ripley Airport, you should consider listing it here.  To start the listing process, click on the button below
 
Add a business
 

Other Pages about Ripley Airport

Update a link
 
Copyright © AirNav, LLC. All rights reserved. Privacy Policy  Contact